EI8EPB-1 Weather Reports


Display with metric or nautical units.
time (UTC)temp
F
wind
direction
speed
MPH
gust
MPH
rain 1hr
in
rain 24hr
in
rain mn
in
humidity
%
barometer
mb
20260506042503 45 289 0.0 1.0 0.00 0.00 0.00 86 1013.5
20260506042003 44 290 0.0 1.0 0.00 0.00 0.00 86 1013.6
20260506041503 45 313 0.0 1.0 0.00 0.00 0.00 87 1013.5
20260506041003 45 317 0.0 2.0 0.00 0.00 0.00 87 1013.6
20260506040503 45 314 0.0 2.0 0.00 0.00 0.00 87 1013.6
20260506040003 45 310 0.0 2.0 0.00 0.00 0.00 87 1013.6
20260506035503 45 317 0.0 2.0 0.00 0.00 0.00 87 1013.6
20260506035003 45 25 0.0 1.0 0.00 0.00 0.00 88 1013.6
20260506034503 45 23 0.0 1.0 0.00 0.00 0.00 88 1013.6
20260506034003 45 338 0.0 1.0 0.00 0.00 0.00 88 1013.8
20260506033503 45 330 0.0 1.0 0.00 0.00 0.00 88 1013.8
20260506033004 45 296 0.0 1.0 0.00 0.00 0.00 88 1013.8
20260506032503 45 296 0.0 1.0 0.00 0.00 0.00 88 1013.8
20260506032003 46 0 0.0 0.0 0.00 0.00 0.00 88 1013.8
20260506031505 46 296 0.0 1.0 0.00 0.00 0.00 87 1013.8
20260506031003 46 290 0.0 1.0 0.00 0.00 0.00 87 1013.8
20260506030503 46 318 0.0 3.0 0.00 0.00 0.00 87 1013.8
20260506030003 46 326 0.0 3.0 0.00 0.00 0.00 87 1013.8
20260506025503 46 331 0.0 2.0 0.00 0.00 0.00 88 1013.9
20260506025003 46 322 0.0 2.0 0.00 0.00 0.00 88 1013.9
20260506024503 46 310 0.0 2.0 0.00 0.00 0.00 89 1013.9
20260506024003 46 316 0.0 2.0 0.00 0.00 0.00 89 1014.0
20260506023503 46 325 0.0 2.0 0.00 0.00 0.00 90 1013.9
20260506023003 46 320 0.0 2.0 0.00 0.00 0.00 91 1013.9
20260506022503 47 315 0.0 2.0 0.00 0.00 0.00 91 1013.9
20260506022003 47 335 0.0 2.0 0.00 0.00 0.00 92 1013.9
20260506021503 47 347 0.0 2.0 0.00 0.00 0.00 93 1014.0
20260506021003 47 320 0.0 2.0 0.00 0.00 0.00 93 1014.0
20260506020503 47 303 0.0 1.0 0.00 0.00 0.00 94 1014.0
20260506020004 47 0 0.0 0.0 0.00 0.00 0.00 94 1014.0
20260506015503 47 0 0.0 0.0 0.00 0.00 0.00 94 1014.0
20260506015003 47 0 0.0 0.0 0.00 0.00 0.00 94 1014.0
20260506014503 48 0 0.0 0.0 0.00 0.00 0.00 94 1014.0
20260506014003 48 0 0.0 0.0 0.00 0.00 0.00 94 1014.0
20260506013504 48 0 0.0 0.0 0.00 0.00 0.00 94 1014.0
20260506013003 48 0 0.0 0.0 0.00 0.00 0.00 94 1014.1
20260506012505 48 0 0.0 0.0 0.00 0.00 0.00 94 1014.1
20260506012003 48 0 0.0 0.0 0.00 0.00 0.00 93 1014.2
20260506011503 48 0 0.0 0.0 0.00 0.00 0.00 93 1014.2
20260506011003 48 0 0.0 0.0 0.00 0.00 0.00 93 1014.2
20260506010503 48 0 0.0 0.0 0.00 0.00 0.00 93 1014.2
20260506010004 48 0 0.0 0.0 0.00 0.00 0.00 93 1014.2
20260506005503 48 0 0.0 0.0 0.00 0.00 0.00 93 1014.2
20260506005003 47 0 0.0 0.0 0.00 0.00 0.00 93 1014.2
20260506004504 48 0 0.0 0.0 0.00 0.00 0.00 93 1014.2
20260506004003 47 0 0.0 0.0 0.00 0.00 0.00 93 1014.3
20260506003503 47 0 0.0 0.0 0.00 0.00 0.00 93 1014.2
20260506003003 47 0 0.0 0.0 0.00 0.00 0.00 92 1014.3
20260506002503 47 0 0.0 0.0 0.00 0.00 0.00 92 1014.3
20260506002003 47 0 0.0 0.0 0.00 0.00 0.00 92 1014.3
20260506001503 48 0 0.0 0.0 0.00 0.00 0.00 92 1014.3
20260506001003 48 0 0.0 0.0 0.00 0.00 0.00 92 1014.2
20260506000503 48 0 0.0 0.0 0.00 0.00 0.00 92 1014.3
20260506000003 48 0 0.0 0.0 0.00 0.00 0.00 92 1014.3
20260505235503 48 0 0.0 0.0 0.00 0.00 0.00 91 1014.4
20260505235003 48 0 0.0 0.0 0.00 0.00 0.00 91 1014.4
20260505234503 48 0 0.0 0.0 0.00 0.00 0.00 91 1014.4
20260505234003 48 0 0.0 0.0 0.00 0.00 0.00 91 1014.4
20260505233503 48 0 0.0 0.0 0.00 0.00 0.00 90 1014.4
20260505233003 48 0 0.0 0.0 0.00 0.00 0.00 90 1014.4
20260505232503 48 0 0.0 0.0 0.00 0.00 0.00 89 1014.4
20260505232003 48 0 0.0 0.0 0.00 0.00 0.00 89 1014.4
20260505231503 49 0 0.0 0.0 0.00 0.00 0.00 89 1014.5
20260505231003 49 145 0.0 1.0 0.00 0.00 0.00 89 1014.5
20260505230503 49 145 0.0 1.0 0.00 0.00 0.00 89 1014.6
20260505230004 49 145 0.0 1.0 0.00 0.00 0.00 89 1014.6
20260505225504 49 145 0.0 1.0 0.00 0.00 0.00 88 1014.6
20260505225003 49 146 0.0 1.0 0.00 0.00 0.00 88 1014.6
20260505224503 50 150 0.0 1.0 0.00 0.00 0.00 88 1014.6
20260505224003 50 152 0.0 1.0 0.00 0.00 0.00 88 1014.6
20260505223503 50 142 0.0 2.0 0.00 0.00 0.00 88 1014.6
20260505223003 50 139 0.0 2.0 0.00 0.00 0.00 88 1014.7
20260505222503 50 138 0.0 1.0 0.00 0.00 0.00 88 1014.7
20260505222003 50 131 0.0 1.0 0.00 0.00 0.00 87 1014.7
20260505221503 50 139 0.0 2.0 0.00 0.00 0.00 87 1014.8
20260505221003 50 141 0.0 2.0 0.00 0.00 0.00 87 1014.8
20260505220503 51 0 0.0 0.0 0.00 0.00 0.00 86 1014.8
20260505220003 51 0 0.0 0.0 0.00 0.00 0.00 86 1014.8
20260505215503 51 0 0.0 0.0 0.00 0.00 0.00 86 1014.7
20260505215003 51 0 0.0 0.0 0.00 0.00 0.00 86 1014.7
20260505214503 51 0 0.0 0.0 0.00 0.00 0.00 86 1014.7
20260505214003 51 0 0.0 0.0 0.00 0.00 0.00 86 1014.7
20260505213503 51 0 0.0 0.0 0.00 0.00 0.00 86 1014.7
20260505213003 51 0 0.0 0.0 0.00 0.00 0.00 86 1014.8
20260505212503 51 0 0.0 0.0 0.00 0.00 0.00 85 1014.7
20260505212003 51 0 0.0 0.0 0.00 0.00 0.00 85 1014.7
20260505211503 51 0 0.0 0.0 0.00 0.00 0.00 84 1014.7
20260505211003 51 0 0.0 0.0 0.00 0.00 0.00 84 1014.7
20260505210503 52 0 0.0 0.0 0.00 0.00 0.00 83 1014.8
20260505210004 52 0 0.0 0.0 0.00 0.00 0.00 83 1014.7
20260505205503 52 0 0.0 0.0 0.00 0.00 0.00 83 1014.7
20260505205003 52 0 0.0 0.0 0.00 0.00 0.00 82 1014.7
20260505204503 52 0 0.0 0.0 0.00 0.00 0.00 82 1014.6
20260505204003 52 0 0.0 0.0 0.00 0.00 0.00 82 1014.7
20260505203504 52 0 0.0 0.0 0.00 0.00 0.00 81 1014.6
20260505203003 52 0 0.0 0.0 0.00 0.00 0.00 81 1014.6
20260505202503 52 0 0.0 0.0 0.00 0.00 0.00 81 1014.7
20260505202004 52 0 0.0 0.0 0.00 0.00 0.00 81 1014.6
20260505201503 52 0 0.0 0.0 0.00 0.00 0.00 81 1014.6
20260505201003 52 0 0.0 0.0 0.00 0.00 0.00 81 1014.6
20260505200503 52 0 0.0 0.0 0.00 0.00 0.00 81 1014.7
20260505200003 52 0 0.0 0.0 0.00 0.00 0.00 80 1014.6
20260505195503 52 0 0.0 0.0 0.00 0.00 0.00 80 1014.7
20260505195003 52 0 0.0 0.0 0.00 0.00 0.00 80 1014.7
20260505194503 53 0 0.0 0.0 0.00 0.00 0.00 80 1014.6
20260505194003 53 0 0.0 0.0 0.00 0.00 0.00 80 1014.6
20260505193503 53 0 0.0 0.0 0.00 0.00 0.00 80 1014.5
20260505193003 53 0 0.0 0.0 0.00 0.00 0.00 79 1014.5
20260505192503 53 0 0.0 0.0 0.00 0.00 0.00 79 1014.5
20260505192003 53 0 0.0 0.0 0.00 0.00 0.00 79 1014.5
20260505191503 54 0 0.0 0.0 0.00 0.00 0.00 78 1014.5
20260505191003 54 0 0.0 0.0 0.00 0.00 0.00 78 1014.5
20260505190503 54 0 0.0 0.0 0.00 0.00 0.00 78 1014.5
20260505190004 54 0 0.0 0.0 0.00 0.00 0.00 78 1014.4
20260505185503 54 0 0.0 0.0 0.00 0.00 0.00 78 1014.4
20260505185003 54 0 0.0 0.0 0.00 0.00 0.00 79 1014.4
20260505184503 54 0 0.0 0.0 0.00 0.00 0.00 78 1014.4
20260505184004 54 0 0.0 0.0 0.00 0.00 0.00 78 1014.4
20260505183503 54 0 0.0 0.0 0.00 0.00 0.00 78 1014.3
20260505183004 54 0 0.0 0.0 0.00 0.00 0.00 78 1014.3
20260505182503 54 0 0.0 0.0 0.00 0.00 0.00 78 1014.3
20260505182003 54 0 0.0 0.0 0.00 0.00 0.00 77 1014.3
20260505181503 54 0 0.0 0.0 0.00 0.00 0.00 77 1014.3
20260505181003 55 282 0.0 1.0 0.00 0.00 0.00 76 1014.4
20260505180503 55 303 0.0 1.0 0.00 0.00 0.00 76 1014.3
20260505180003 55 285 0.0 1.0 0.00 0.00 0.00 76 1014.4
20260505175503 55 287 1.0 2.0 0.00 0.00 0.00 76 1014.5
20260505175003 55 286 1.0 2.0 0.00 0.00 0.00 76 1014.5
20260505174503 55 286 0.0 2.0 0.00 0.00 0.00 76 1014.5
20260505174003 55 277 0.0 2.0 0.00 0.00 0.00 76 1014.6
20260505173503 55 271 0.0 1.0 0.00 0.00 0.00 75 1014.5
20260505173003 55 0 0.0 0.0 0.00 0.00 0.00 76 1014.5
20260505172504 55 0 0.0 0.0 0.00 0.00 0.00 75 1014.6
20260505172003 55 276 0.0 1.0 0.00 0.00 0.00 75 1014.6
20260505171503 55 301 0.0 1.0 0.00 0.00 0.00 75 1014.6
20260505171003 55 309 0.0 1.0 0.00 0.00 0.00 75 1014.6
20260505170503 55 275 0.0 1.0 0.00 0.00 0.00 75 1014.6
20260505170004 55 264 0.0 1.0 0.00 0.00 0.00 74 1014.7
20260505165503 55 257 0.0 1.0 0.00 0.00 0.00 75 1014.7
20260505165003 54 238 0.0 1.0 0.00 0.00 0.00 75 1014.7
20260505164503 54 244 0.0 1.0 0.00 0.00 0.00 75 1014.7
20260505164003 54 252 0.0 1.0 0.00 0.00 0.00 75 1014.7
20260505163504 54 75 0.0 1.0 0.00 0.00 0.00 76 1014.7
20260505163003 54 41 0.0 2.0 0.00 0.00 0.00 77 1014.7
20260505162503 54 41 0.0 2.0 0.00 0.00 0.00 76 1014.7
20260505162003 54 30 0.0 2.0 0.00 0.00 0.00 76 1014.7
20260505161503 54 15 0.0 2.0 0.00 0.00 0.00 76 1014.7
20260505161003 54 32 0.0 2.0 0.00 0.00 0.00 75 1014.8
20260505160503 54 15 0.0 2.0 0.00 0.00 0.00 75 1014.8
20260505153003 55 26 1.0 4.0 0.00 0.00 0.00 75 1014.8
20260505152503 55 360 1.0 4.0 0.00 0.00 0.00 74 1014.8
20260505152003 55 356 1.0 4.0 0.00 0.00 0.00 73 1014.8
20260505151503 56 357 1.0 4.0 0.00 0.00 0.00 73 1014.8
20260505151003 56 302 1.0 4.0 0.00 0.00 0.00 72 1014.8
20260505150503 57 211 2.0 4.0 0.00 0.00 0.00 73 1014.8
20260505140503 54 278 1.0 4.0 0.00 0.00 0.00 81 1015.0
20260505125003 57 274 1.0 5.0 0.00 0.00 0.00 72 1015.1
20260505124503 56 285 1.0 5.0 0.00 0.00 0.00 73 1015.1
20260505124003 56 316 1.0 3.0 0.00 0.00 0.00 73 1015.1
20260505123503 55 331 1.0 3.0 0.00 0.00 0.00 75 1015.2
20260505123003 55 336 1.0 3.0 0.00 0.00 0.00 75 1015.2
20260505122503 55 332 1.0 2.0 0.00 0.00 0.00 77 1015.2
20260505122004 55 293 1.0 2.0 0.00 0.00 0.00 76 1015.2
20260505121503 55 287 1.0 2.0 0.00 0.00 0.00 76 1015.2
20260505121003 55 290 1.0 3.0 0.00 0.00 0.00 76 1015.2
20260505120503 55 277 1.0 3.0 0.00 0.00 0.00 78 1015.3
20260505120004 55 280 1.0 3.0 0.00 0.00 0.00 77 1015.3
20260505115503 55 256 1.0 3.0 0.00 0.00 0.00 78 1015.4
20260505115003 54 279 1.0 4.0 0.00 0.00 0.00 79 1015.4
20260505114503 54 305 1.0 4.0 0.00 0.00 0.00 79 1015.5
20260505114003 54 193 1.0 4.0 0.00 0.00 0.00 81 1015.5
20260505113503 53 228 1.0 3.0 0.00 0.00 0.00 81 1015.5
20260505113003 52 262 1.0 2.0 0.00 0.00 0.00 82 1015.6
20260505112504 52 241 1.0 4.0 0.00 0.00 0.00 82 1015.5
20260505112003 52 245 1.0 4.0 0.00 0.00 0.00 82 1015.6
20260505111503 52 273 0.0 3.0 0.00 0.00 0.00 81 1015.8
20260505111003 52 310 0.0 2.0 0.00 0.00 0.00 82 1015.8
20260505110503 52 334 1.0 2.0 0.00 0.00 0.00 83 1015.8
20260505102003 54 326 0.0 2.0 0.00 0.00 0.00 75 1015.7
20260505101503 54 339 0.0 2.0 0.00 0.00 0.00 76 1015.7
20260505101003 54 353 0.0 3.0 0.00 0.00 0.00 78 1015.6
20260505100503 53 7 0.0 3.0 0.00 0.00 0.00 77 1015.7
20260505100003 53 14 1.0 4.0 0.00 0.00 0.00 79 1015.7
20260505095503 53 337 1.0 4.0 0.00 0.00 0.00 78 1015.8
20260505095003 53 267 1.0 4.0 0.00 0.00 0.00 78 1015.8
20260505094503 53 259 1.0 4.0 0.00 0.00 0.00 78 1015.8
20260505094003 53 262 1.0 4.0 0.00 0.00 0.00 79 1015.8
20260505093503 53 270 1.0 4.0 0.00 0.00 0.00 79 1015.8
20260505093003 53 267 1.0 4.0 0.00 0.00 0.00 81 1015.8
20260505092503 52 257 1.0 3.0 0.00 0.00 0.00 81 1015.8
20260505092003 52 265 1.0 3.0 0.00 0.00 0.00 81 1015.8
20260505091503 52 280 1.0 5.0 0.00 0.00 0.00 82 1015.9
20260505091003 52 291 1.0 5.0 0.00 0.00 0.00 82 1015.8
20260505090503 52 16 1.0 4.0 0.00 0.00 0.00 82 1015.8
20260505090004 52 28 1.0 4.0 0.00 0.00 0.00 83 1015.9
20260505085503 52 351 1.0 4.0 0.00 0.00 0.00 83 1015.9
20260505085003 52 293 1.0 4.0 0.00 0.00 0.00 84 1015.9
20260505084503 51 273 1.0 5.0 0.00 0.00 0.00 84 1015.8
20260505084003 51 268 1.0 5.0 0.00 0.00 0.00 83 1015.9
20260505083503 51 266 1.0 4.0 0.00 0.00 0.00 84 1015.8
20260505083003 51 268 1.0 4.0 0.00 0.00 0.00 85 1015.9
20260505082503 51 272 1.0 6.0 0.00 0.00 0.00 85 1015.8
20260505082003 50 269 1.0 6.0 0.00 0.00 0.00 85 1015.9
20260505081503 50 255 1.0 4.0 0.00 0.00 0.00 85 1015.9
20260505081003 50 267 1.0 4.0 0.00 0.00 0.00 86 1015.9
20260505080504 50 295 1.0 4.0 0.00 0.00 0.00 86 1015.9
20260505080003 50 311 1.0 4.0 0.00 0.00 0.00 86 1016.0
20260505075503 50 277 1.0 3.0 0.00 0.00 0.00 86 1015.9
20260505075003 50 281 1.0 4.0 0.00 0.00 0.00 86 1015.8
20260505074503 50 281 1.0 4.0 0.00 0.00 0.00 85 1015.8
20260505074003 50 275 0.0 2.0 0.00 0.00 0.00 86 1015.8
20260505073503 50 277 0.0 2.0 0.00 0.00 0.00 87 1015.8
20260505073003 50 301 1.0 2.0 0.00 0.00 0.00 87 1015.8
20260505072503 50 42 0.0 2.0 0.00 0.00 0.00 87 1015.8
20260505072003 50 266 0.0 1.0 0.00 0.00 0.00 88 1015.8
20260505071503 50 261 0.0 1.0 0.00 0.00 0.00 89 1015.9
20260505071003 49 308 0.0 1.0 0.00 0.00 0.00 88 1015.8
20260505070503 49 277 0.0 1.0 0.00 0.00 0.00 89 1015.8
20260505070003 49 266 0.0 1.0 0.00 0.00 0.00 89 1015.8
20260505065503 49 251 0.0 1.0 0.00 0.00 0.00 89 1015.8
20260505065003 49 250 0.0 1.0 0.00 0.00 0.00 89 1015.8
20260505064503 48 281 0.0 1.0 0.00 0.00 0.00 89 1015.8
20260505064003 48 280 0.0 1.0 0.00 0.00 0.00 89 1015.8
20260505063503 48 253 0.0 1.0 0.00 0.00 0.00 89 1015.8
20260505063003 48 220 0.0 1.0 0.00 0.00 0.00 89 1015.9
20260505062503 48 216 0.0 1.0 0.00 0.00 0.00 89 1015.9
20260505062003 48 216 0.0 1.0 0.00 0.00 0.00 89 1015.9
20260505061503 48 221 0.0 1.0 0.00 0.00 0.00 89 1015.8
20260505061003 48 222 0.0 1.0 0.00 0.00 0.00 89 1015.8
20260505060503 47 222 0.0 1.0 0.00 0.00 0.00 89 1015.8
20260505060003 47 222 0.0 1.0 0.00 0.00 0.00 89 1015.8
20260505055503 47 213 0.0 1.0 0.00 0.00 0.00 89 1015.8
20260505055003 47 214 0.0 1.0 0.00 0.00 0.00 88 1015.8
20260505054503 47 216 0.0 1.0 0.00 0.00 0.00 88 1015.8
20260505054003 47 216 0.0 1.0 0.00 0.00 0.00 88 1015.8
20260505053503 47 212 0.0 1.0 0.00 0.00 0.00 88 1015.8
20260505053003 47 232 0.0 1.0 0.00 0.00 0.00 88 1015.7
20260505052503 47 288 0.0 1.0 0.00 0.00 0.00 88 1015.7
20260505052003 47 297 0.0 1.0 0.00 0.00 0.00 88 1015.7
20260505051503 47 0 0.0 0.0 0.00 0.00 0.00 89 1015.8
20260505051003 47 0 0.0 0.0 0.00 0.00 0.00 89 1015.7
20260505050503 46 0 0.0 0.0 0.00 0.00 0.00 89 1015.7